Time+13,TemperatureF,Dew PointF,Humidity,Sea Level PressureIn,VisibilityMPH,Wind Direction,Wind SpeedMPH,Gust SpeedMPH,PrecipitationIn,Events,Conditions,WindDirDegrees,DateUTC
12:00 AM,71.6,71.6,100,29.77,18.6,Calm,Calm,-,N/A,,Overcast,0,2012-11-06 11:00:00
1:00 AM,72,71,97,29.74,12,Calm,Calm,,,Rain,Light Rain Showers,,2012-11-06 12:00:00
1:00 AM,71.6,71.6,100,29.74,24.9,Calm,Calm,-,N/A,,Overcast,0,2012-11-06 12:00:00
2:00 AM,71.6,71.6,100,29.71,24.9,Calm,Calm,-,N/A,,Mostly Cloudy,0,2012-11-06 13:00:00
3:00 AM,71.6,71.6,100,29.68,24.9,Calm,Calm,-,N/A,,Mostly Cloudy,0,2012-11-06 14:00:00
4:00 AM,72,71,97,29.70,12,Calm,Calm,,,,Partly Cloudy,,2012-11-06 15:00:00
4:00 AM,71.6,71.6,100,29.68,24.9,Calm,Calm,-,N/A,,Mostly Cloudy,0,2012-11-06 15:00:00
5:00 AM,73.4,71.6,94,29.68,18.6,Calm,Calm,-,N/A,,Mostly Cloudy,0,2012-11-06 16:00:00
6:00 AM,71.6,71.6,100,29.68,24.9,Calm,Calm,-,N/A,,Mostly Cloudy,0,2012-11-06 17:00:00
7:00 AM,72,71,97,29.70,31,Calm,Calm,,,,Partly Cloudy,,2012-11-06 18:00:00
7:00 AM,71.6,71.6,100,29.68,31.1,Calm,Calm,-,N/A,,Mostly Cloudy,0,2012-11-06 18:00:00
8:00 AM,73.4,71.6,94,29.68,31.1,Calm,Calm,-,N/A,,Mostly Cloudy,0,2012-11-06 19:00:00
9:00 AM,75.2,73.4,94,29.68,31.1,Calm,Calm,-,N/A,,Mostly Cloudy,0,2012-11-06 20:00:00
10:00 AM,76,73,86,29.71,12,West,5.8,,,,Overcast,280,2012-11-06 21:00:00
10:00 AM,77.0,73.4,89,29.68,18.6,West,5.8,-,N/A,,Mostly Cloudy,280,2012-11-06 21:00:00
11:00 AM,73.4,71.6,94,29.68,12.4,WSW,8.1,-,N/A,Rain,Light Rain Showers,240,2012-11-06 22:00:00
12:00 PM,78.8,75.2,89,29.65,31.1,Calm,Calm,-,N/A,,Mostly Cloudy,0,2012-11-06 23:00:00
1:00 PM,80,73,74,29.63,31,NW,6.9,,,,Partly Cloudy,320,2012-11-07 00:00:00
1:00 PM,78.8,73.4,83,29.62,31.1,NW,6.9,-,N/A,,Mostly Cloudy,320,2012-11-07 00:00:00
2:00 PM,84.2,75.2,74,29.59,31.1,NE,8.1,-,N/A,,Scattered Clouds,40,2012-11-07 01:00:00
3:00 PM,87.8,75.2,66,29.56,31.1,WNW,10.4,-,N/A,,Scattered Clouds,290,2012-11-07 02:00:00
4:00 PM,85,75,65,29.57,31,West,4.6,,,,Partly Cloudy,260,2012-11-07 03:00:00
4:00 PM,86.0,75.2,70,29.56,31.1,West,4.6,-,N/A,,Scattered Clouds,260,2012-11-07 03:00:00
5:00 PM,87.8,71.6,58,29.56,31.1,West,9.2,-,N/A,,Scattered Clouds,280,2012-11-07 04:00:00
6:00 PM,86.0,66.2,51,29.56,31.1,West,10.4,-,N/A,,Scattered Clouds,270,2012-11-07 05:00:00
7:00 PM,81,68,56,29.62,31,WSW,12.7,,,,Partly Cloudy,240,2012-11-07 06:00:00
7:00 PM,80.6,68.0,65,29.62,31.1,WSW,12.7,-,N/A,,Scattered Clouds,240,2012-11-07 06:00:00
8:00 PM,78.8,68.0,69,29.65,31.1,WSW,8.1,-,N/A,,Scattered Clouds,240,2012-11-07 07:00:00
9:00 PM,77.0,68.0,74,29.68,24.9,WSW,12.7,-,N/A,,Partly Cloudy,240,2012-11-07 08:00:00
10:00 PM,75,68,74,29.71,12,WSW,11.5,,,,Partly Cloudy,240,2012-11-07 09:00:00
10:00 PM,75.2,68.0,78,29.71,24.9,WSW,11.5,-,N/A,,Scattered Clouds,240,2012-11-07 09:00:00
11:00 PM,73.4,69.8,88,29.71,31.1,West,8.1,-,N/A,,Partly Cloudy,280,2012-11-07 10:00:00